Weather History for Chievres, Belgium

Change the Weather History Date:

Friday, August 9, 2013

  Actual Average Record
Temperature  
Mean Temperature 62 °F -  
Max Temperature 73 °F 67 °F 89 °F (1997)
Min Temperature 51 °F 54 °F 48 °F (2010)
Degree Days  
Heating Degree Days 3    
Growing Degree Days 12 (Base 50)    
Moisture  
Dew Point 56 °F    
Average Humidity 81    
Maximum Humidity 100    
Minimum Humidity 49    
Precipitation  
Precipitation 0.04 in - - ()
Sea Level Pressure  
Sea Level Pressure 30.13 in    
Wind  
Wind Speed 4 mph ()    
Max Wind Speed 14 mph    
Max Gust Speed -    
Visibility 6.4 miles    
Events      
Averages and records for this station are not official NWS values.
T = Trace of Precipitation, MM = Missing Value Source: Averaged Metar Reports

Daily Weather History Graph

Daily Weather History Graph

Search for Another Location

Airport:

Trip Planner

Search our weather history database for the weather conditions in past years. The results will help you decide how hot, cold, wet, or windy it might be!

Date:

Astronomy

Aug. 09, 2013 Rise Set
Actual Time 6:23 AM CEST 9:15 PM CEST
Civil Twilight 5:46 AM CEST 9:53 PM CEST
Nautical Twilight 4:57 AM CEST 10:41 PM CEST
Astronomical Twilight 3:56 AM CEST 11:40 PM CEST
Moon 9:17 AM CEST (8/9) 9:50 PM CEST (8/9)
Length of Visible Light 16h 07m
Length of Day
14h 51m
Waxing Crescent, 6% of the Moon is Illuminated
Aug 9
Waxing Crescent
Aug 14
First Quarter
Aug 21
Full
Aug 28
Last Quarter
Sep 5
New

Hourly Weather History & Observations

Time (CEST) Temp. Dew Point Humidity Pressure Visibility Wind Dir Wind Speed Gust Speed Precip Events Conditions
12:25 AM 55.4 °F 51.8 °F 88% 30.15 in 6.2 mi Variable 2.3 mph - N/A   Unknown
1:25 AM 53.6 °F 51.8 °F 94% 30.15 in 6.2 mi Variable 2.3 mph - N/A   Unknown
2:00 AM 53 °F 52 °F 93% 30.17 in 19 mi 2.2 mph - -  
2:25 AM 53.6 °F 51.8 °F 94% 30.15 in 6.2 mi Variable 1.2 mph - N/A   Unknown
3:25 AM 53.6 °F 51.8 °F 94% 30.15 in 6.2 mi Variable 2.3 mph - N/A   Mostly Cloudy
4:25 AM 53.6 °F 51.8 °F 94% 30.15 in 6.2 mi Variable 2.3 mph - N/A   Mostly Cloudy
5:00 AM 52 °F 51 °F 94% 30.17 in 9 mi 2.2 mph - -   Scattered Clouds
5:25 AM 51.8 °F 51.8 °F 100% 30.15 in 6.2 mi Variable 1.2 mph - N/A   Scattered Clouds
6:25 AM 53.6 °F 51.8 °F 94% 30.15 in 6.2 mi South 3.5 mph - N/A   Mostly Cloudy
7:25 AM 53.6 °F 51.8 °F 94% 30.12 in 6.2 mi South 3.5 mph - N/A   Scattered Clouds
8:00 AM 58 °F 52 °F 76% 30.14 in 16 mi SSE 6.7 mph - -   Partly Cloudy
8:25 AM 59.0 °F 53.6 °F 82% 30.12 in 6.2 mi South 6.9 mph - N/A   Mostly Cloudy
9:25 AM 60.8 °F 53.6 °F 77% 30.12 in 6.2 mi South 6.9 mph - N/A   Mostly Cloudy
10:25 AM 62.6 °F 55.4 °F 77% 30.12 in 6.2 mi SW 4.6 mph - N/A   Mostly Cloudy
11:25 AM 62.6 °F 57.2 °F 82% 30.15 in 6.2 mi WSW 4.6 mph - N/A   Mostly Cloudy
11:34 AM 60.8 °F 57.2 °F 88% 30.15 in 4.3 mi West 6.9 mph - N/A   Overcast
11:51 AM 60.8 °F 57.2 °F 88% 30.15 in 5.0 mi West 3.5 mph - N/A   Overcast
11:52 AM 60.8 °F 57.2 °F 88% 30.15 in 4.3 mi West 3.5 mph - N/A   Mostly Cloudy
12:04 PM 60.8 °F 57.2 °F 88% 30.15 in 6.2 mi West 3.5 mph - N/A   Mostly Cloudy
12:16 PM 60.8 °F 57.2 °F 88% 30.12 in 4.3 mi Variable 2.3 mph - N/A   Mostly Cloudy
12:25 PM 60.8 °F 57.2 °F 88% 30.12 in 6.2 mi Variable 2.3 mph - N/A   Mostly Cloudy
1:14 PM 62.6 °F 57.2 °F 82% 30.12 in 3.7 mi ESE 3.5 mph - N/A   Mostly Cloudy
1:25 PM 64.4 °F 59.0 °F 83% 30.12 in 6.2 mi SE 5.8 mph - N/A   Mostly Cloudy
1:26 PM 64.4 °F 59.0 °F 83% 30.12 in 6.2 mi SE 5.8 mph - N/A   Mostly Cloudy
2:00 PM 67 °F 57 °F 61% 30.13 in 9 mi SSE 4.5 mph - -   Clear
2:25 PM 69.8 °F 59.0 °F 68% 30.12 in 6.2 mi SSW 8.1 mph - N/A   Partly Cloudy
3:25 PM 71.6 °F 59.0 °F 64% 30.09 in 6.2 mi WSW 6.9 mph - N/A   Partly Cloudy
4:25 PM 71.6 °F 59.0 °F 64% 30.09 in 6.2 mi West 9.2 mph - N/A   Mostly Cloudy
5:00 PM 73 °F 58 °F 49% 30.10 in 10 mi West 6.7 mph - -   Scattered Clouds
5:25 PM 71.6 °F 59.0 °F 64% 30.09 in 6.2 mi WNW 13.8 mph - N/A   Partly Cloudy
6:25 PM 69.8 °F 59.0 °F 68% 30.09 in 6.2 mi West 13.8 mph - N/A   Mostly Cloudy
7:25 PM 69.8 °F 57.2 °F 64% 30.09 in 6.2 mi West 10.4 mph - N/A   Partly Cloudy
8:25 PM 68.0 °F 55.4 °F 64% 30.12 in 6.2 mi West 10.4 mph - N/A   Partly Cloudy
9:25 PM 64.4 °F 57.2 °F 77% 30.15 in 6.2 mi West 5.8 mph - N/A   Unknown
9:38 PM 62.6 °F 57.2 °F 82% 30.15 in 1.6 mi West 5.8 mph - N/A   Unknown
9:40 PM 62.6 °F 57.2 °F 82% 30.15 in 0.6 mi West 5.8 mph - N/A   Unknown
9:57 PM 62.6 °F 57.2 °F 82% 30.15 in 1.2 mi West 4.6 mph - N/A   Unknown
10:15 PM 60.8 °F 55.4 °F 82% 30.15 in 6.2 mi WSW 3.5 mph - N/A   Unknown
10:25 PM 60.8 °F 55.4 °F 82% 30.15 in 6.2 mi WSW 4.6 mph - N/A   Unknown
11:25 PM 57.2 °F 55.4 °F 94% 30.15 in 6.2 mi SW 6.9 mph - N/A   Unknown